STARLINK-30542, 58041

Orbit data source: Space-Track

STARLINK-30542, 58041 is a payload satellite owned by SpaceX/Seattle (US) in LEO that was launched on Mon, 09 Oct 2023 UTC via an FALCON 9 launch vehicle from the Air Force Western Test Range (AFWTR). Payload-class satellites include a variety of spacecraft equipped with specific instruments for various scientific and technological missions. These include communications satellites like Starlink; space stations such as the ISS; scientific satellites like the Hubble; Earth observation satellites from companies like Planet Labs, Umbra, and HawkEye 360; GPS; miniature CubeSats for education and research; and military/defense satellites.

Loading next visibility...
Identifier
58041, 2023-156P
Orbit
LEO
Country
Flag of USUS
Related business
Manufacturer
SpaceX/Seattle
Mission
Operational Commercial Communications
Bus & Motor
STARLINK V2M, Unknown motor
Mass
730 kg wet, ~700 kg dry
Launch date (UTC)
2023-10-09 (2 years ago)
Launch vehicle
FALCON 9
Launch site
Air Force Western Test Range (AFWTR)
Object type
Payload
Rocket body
Debris
Shape & HBR
Box + 2 Pan, 17.7 m
Radar Cross Section
33.884 m², Large (>1 m²)

Expand to show TLE details & history
Last TLE update: 21 hours ago

TLE from 21 hours ago
0 STARLINK-30542
1 58041U 23156P   25348.73682477  .00000175  00000-0  18047-4 0  9998
2 58041  53.1610 112.8314 0001778  82.0632 278.0571 15.30191722123300
Epoch: 2025-12-14T17:41Z
TLE epoch observation values (Epoch: 2025-12-14T17:41:01.660Z)
Latitude
0.00004°
Longitude
123.92905°
Altitude
475.969 km
Speed
7.629 km/s
True Right ascension
07h 31m 19s
True Declination
0° 00' 00"
Sunlit
Object was in full shadow at epoch
Visualization orbit readout
Latitude
Unknown
Longitude
Unknown
Altitude
Unknown
Speed
Unknown
Apparent Right ascension
Unknown
Apparent Declination
Unknown
Sunlit
N/A
Visualization observer readout
Local Sidereal Time
13:23:48
Azimuth
Unknown
Elevation
Unknown
Doppler factor
Unknown
Orbital elements
Apogee altitude
476.715 km
Perigee altitude
474.277 km
Semi-major axis
6,853.633 km
Eccentricity
0.00018
Inclination
53.161°
RAAN
112.8314°
Arg. of periapsis
82.0632°
True anomaly
278.03693°
Mean anomaly
278.0571°
Eccentric anomaly
278.04701°
Mean motion
3.82527 °/min
Orbital period
94.11 mins
BSTAR
0.000018047
Loading maneuver chart data...
Computing Atmospheric mass density...
Loading historical data...
Loading historical data...
Loading historical data...
Loading historical data...
Loading historical data...
Loading historical data...
Loading historical data...

Documentation

Showing up to 5 results
|